This is the latest recevied weather packets stored in our database for station/object KB3AWQ. If no packets are shown the sender has not sent any weather packets the latest 10 day(s).
| Time | Temp. | Humidity | Pressure | Rain* | Wind** | Luminosity | Snow |
|---|---|---|---|---|---|---|---|
| 1787973275 | 17.22° C | 83% | 1022 hPa | 0 mm | - | 0 W/m² | - |
| 1787972967 | 17.22° C | 82% | 1022 hPa | 0 mm | - | 0 W/m² | - |
| 1787972667 | 17.78° C | 82% | 1022 hPa | 0 mm | - | 0 W/m² | - |
| 1787972367 | 17.78° C | 80% | 1021.9 hPa | 0 mm | - | 0 W/m² | - |
| 1787972066 | 17.78° C | 79% | 1021.9 hPa | 0 mm | - | 0 W/m² | - |
| 1787971766 | 17.78° C | 78% | 1021.8 hPa | 0 mm | - | 0 W/m² | - |
| 1787971466 | 18.33° C | 75% | 1021.8 hPa | 0 mm | - | 0 W/m² | - |
| 1787971166 | 18.33° C | 78% | 1021.8 hPa | 0 mm | - | 0 W/m² | - |
| 1787970867 | 18.33° C | 77% | 1021.8 hPa | 0 mm | - | 0 W/m² | - |
| 1787970566 | 18.89° C | 75% | 1021.7 hPa | 0 mm | - | 0 W/m² | - |
| 1787970266 | 18.89° C | 76% | 1021.7 hPa | 0 mm | - | 0 W/m² | - |
| 1787969966 | 18.89° C | 74% | 1021.6 hPa | 0 mm | - | 0 W/m² | - |
| 1787969666 | 18.89° C | 73% | 1021.6 hPa | 0 mm | - | 0 W/m² | - |
| 1787969368 | 18.89° C | 73% | 1021.5 hPa | 0 mm | - | 0 W/m² | - |
| 1787969066 | 18.89° C | 76% | 1021.5 hPa | 0 mm | - | 0 W/m² | - |
| 1787968768 | 18.89° C | 77% | 1021.4 hPa | 0 mm | - | 0 W/m² | - |
| 1787968466 | 19.44° C | 79% | 1021.3 hPa | 0 mm | - | 0 W/m² | - |
| 1787968167 | 19.44° C | 77% | 1021.3 hPa | 0 mm | - | 0 W/m² | - |
| 1787967866 | 19.44° C | 76% | 1021.2 hPa | 0 mm | - | 0 W/m² | - |
| 1787967566 | 20° C | 75% | 1021.1 hPa | 0 mm | - | 0 W/m² | - |
| 1787967267 | 20° C | 74% | 1021 hPa | 0 mm | - | 0 W/m² | - |
| 1787966966 | 20° C | 74% | 1021 hPa | 0 mm | - | 0 W/m² | - |
| 1787966666 | 20.56° C | 73% | 1020.9 hPa | 0 mm | - | 0 W/m² | - |
| 1787966367 | 20° C | 71% | 1020.9 hPa | 0 mm | - | 0 W/m² | - |
| 1787966066 | 20° C | 73% | 1020.8 hPa | 0 mm | - | 0 W/m² | - |
* Rain latest hour (hover to see other rain measurements)
** Current wind speed in m/s (hover to see current wind gust speed)